Update:The Long March CZ-3A rocket body re-entered the Earths atmosphere on the 7th July, 2012 @ 19:49 GMT ± 1 minute.
Inclination: 54.59°Revolution Number: 691Predicted Location: 52°S, 263°E
A Long March CZ-3A rocket body that was launched on the 1st December, 2011, from the Xichang Space Center, for the BEIDOU IGSO 5 mission, is predicted to re-enter the Earths atmosphere on the 7th July, 2012 @ 16:30 GMT ± 9 hours.
CZ-3A RB 1 37949U 11073B 12189.27605209 .86709616 73149-6 11213-2 0 2565 2 37949 054.5473 244.3992 0895485 228.0899 255.2792 14.49651983 6831
Period: 107.9 minutesInclination: 54.59°Apogee: 2168 kmPerigee: 90 km Revolution Number: 689Predicted Location: 54.1°S, 330.2°E